Hourly Data Report for July 20, 2021

SECHELT AUT
BRITISH COLUMBIA
Current Station Operator: ECCC - MSC

49°27'28.788" N
123°42'54.945" W
86.20 m
1047172
71638
VOU

Download Data

Hourly Data (July 2021)
Hourly Data Report for July 20, 2021
TIME
LST
Temp Definition
°C
Dew Point Definition
°C
Rel Hum Definition
%
Precip. Amount Definition
mm

Wind Dir Definition
10's deg

Wind Spd Definition
km/h
Visibility Definition
km
Stn Press Definition
kPa
Hmdx Definition


Wind Chill Definition


Weather Definition


00:00 15.5 10.6 73 0.0 35 1   100.75     LegendNANA
01:00 15.4 10.9 74 0.0 35 3   100.80     LegendNANA
02:00 14.1 10.7 80 0.0 1 4   100.82     LegendNANA
03:00 13.9 10.9 82 0.0 34 2   100.84     LegendNANA
04:00 13.4 11.3 87 0.0   0   100.87     LegendNANA
05:00 13.3 11.2 87 0.0 8 1   100.92     LegendNANA
06:00 17.1 12.6 75 0.0 11 7   100.95     LegendNANA
07:00 19.0 13.0 68 0.0 13 10   100.99     LegendNANA
08:00 18.7 13.7 73 0.0 15 14   101.01     LegendNANA
09:00 18.4 13.5 73 0.0 15 17   101.02     LegendNANA
10:00 18.7 13.6 72 0.0 16 17   101.02     LegendNANA
11:00 21.8 14.7 64 0.0 14 17   101.04 26   LegendNANA
12:00 20.0 14.4 70 0.0 16 19   100.99     LegendNANA
13:00 20.7 14.9 69 0.0 15 17   100.97 25   LegendNANA
14:00 21.4 14.7 66 0.0 15 17   100.94 25   LegendNANA
15:00 20.7 14.5 68 0.0 15 14   100.89     LegendNANA
16:00 20.9 13.9 64 0.0 15 17   100.84     LegendNANA
17:00 21.5 13.2 59 0.0 14 14   100.82     LegendNANA
18:00 20.7 12.2 58 0.0 15 12   100.76     LegendNANA
19:00 20.5 10.5 53 0.0 15 7   100.73     LegendNANA
20:00 18.7 10.5 59 0.0 8 5   100.70     LegendNANA
21:00 16.4 10.8 69 0.0 33 6   100.72     LegendNANA
22:00 15.7 10.8 73 0.0 35 2   100.73     LegendNANA
23:00 14.6 10.6 77 0.0 35 2   100.72     LegendNANA

Notes on Data Quality.

Legend

  • E = Estimated
  • M = Missing
  • NA = Not Available*
  • [empty] = Indicates an unobserved value
Date modified: